Flag for United Kingdom Weather past 2 weeks in Belfast, Northern Ireland, United Kingdom

Now
57 °F

Passing clouds.


Feels Like: 53 °F
Forecast: 56 / 61 °F
Wind: 23 mph from South

Location: Belfast / Harbour

Current Time: Aug 3, 2015 at 11:31:36 PM

Latest Report: Aug 3, 2015 at 9:20 PM


Visibility: N/A

Pressure: 29.53 "Hg

Humidity: 67%

Dew point: 46 °F

Location of BelfastLocation

Historic Weather in Belfast — Graph

°F

Belfast temperature yesterday

Maximum temperature yesterday: 63 °F (at 4:20 PM)
Minimum temperature yesterday: 52 °F (at 6:20 AM)
Average temperature yesterday: 59 °F

Past Weeks' High & Low Weather Summary

 TemperatureHumidityPressure
High68 °F (Jul 20, 4:50 PM)94% (Jul 27, 3:20 PM)30.12 "Hg (Jul 27, 3:20 PM)
Low48 °F (Aug 1, 6:20 AM)42% (Jul 25, 1:20 PM)29.36 "Hg (Jul 26, 6:20 PM)
Average57 °F69%29.79 "Hg
* Reported Jul 19 9:20 PM — Aug 3 9:20 PM, Belfast, Weather by CustomWeather, © 2015

Note: Actual official high and low records may vary slightly from our data, if they occured in-between our weather recording intervals... More about our weather records

Advertising

Belfast weather history for previous 24 hours

 ConditionsComfort  
Time TempWeatherWind HumidityBarometerVisibility
9:20 PM
Mon, Aug 3
57 °FPassing clouds.23 mph67%29.53 "HgN/A
8:50 PM57 °FPassing clouds.18 mph72%29.53 "HgN/A
8:20 PM59 °FPassing clouds.20 mph68%29.53 "HgN/A
7:50 PM61 °FPassing clouds.21 mph63%29.53 "HgN/A
7:20 PM61 °FPassing clouds.21 mph63%29.53 "HgN/A
6:50 PM63 °FPassing clouds.22 mph59%29.53 "HgN/A
6:20 PM63 °FPassing clouds.24 mph59%29.53 "HgN/A
5:50 PM63 °FPassing clouds.21 mph59%29.53 "HgN/A
5:20 PM63 °FPassing clouds.23 mph56%29.56 "HgN/A
4:50 PM63 °FPassing clouds.23 mph56%29.56 "HgN/A
4:20 PM63 °FPassing clouds.21 mph59%29.56 "HgN/A
3:50 PM63 °FPassing clouds.22 mph59%29.59 "HgN/A
3:20 PM64 °FPassing clouds.17 mph52%29.59 "HgN/A
2:50 PM64 °FPassing clouds.18 mph52%29.59 "HgN/A
2:20 PM66 °FBroken clouds.18 mph52%29.59 "HgN/A
1:50 PM63 °FBroken clouds.18 mph56%29.62 "HgN/A
1:20 PM66 °FBroken clouds.20 mph49%29.62 "HgN/A
12:50 PM64 °FBroken clouds.13 mph52%29.62 "HgN/A
12:20 PM63 °FBroken clouds.14 mph56%29.62 "HgN/A
11:50 AM63 °FBroken clouds.18 mph56%29.62 "HgN/A
11:20 AM61 °FBroken clouds.17 mph55%29.59 "HgN/A
10:50 AM61 °FBroken clouds.15 mph59%29.59 "HgN/A
10:20 AM63 °FBroken clouds.14 mph59%29.59 "HgN/A
9:50 AM61 °FBroken clouds.14 mph63%29.59 "HgN/A
9:20 AM59 °FScattered clouds.16 mph68%29.56 "HgN/A
8:50 AM59 °FScattered clouds.15 mph72%29.56 "HgN/A
8:20 AM59 °FScattered showers. Broken clouds.15 mph72%29.53 "HgN/A
7:50 AM59 °FLight rain. Broken clouds.15 mph72%29.53 "HgN/A
7:20 AM61 °FLight rain. Broken clouds.15 mph77%29.50 "Hg6 mi
6:50 AM59 °FLight rain. Broken clouds.16 mph82%29.50 "Hg6 mi
6:20 AM59 °FLight rain. Partly cloudy.15 mph82%29.50 "Hg6 mi
Weather by CustomWeather, © 2015

See weather overviewHow to use our weather pages